IRNSS-1I (43286 NORAD) Tracking and Keplerian Element Data

This shows tracking and keplerian element data for the satellite.

Feedback or suggestion? Click here.




ElementValue
Catalog43286
NameIRNSS-1I
Epoch Orbit2117
Epoch Day10.803069
Epoch Year2024
RAAN88.1512
Inclination28.7416
Eccentricity0.0021371
Argument of Perigee184.8669
Mean Anonmoly180.9652
Mean Motion1.00270022
Decay Rate7.7E-07
L11 43286U 18035A 24010.80306900 .00000077 00000+0 00000+0 0 9995
L22 43286 28.7416 88.1512 0021371 184.8669 180.9652 1.00270022 21170



Live tracking and technical data element details for IRNSS-1I (NORAD 43286). IRNSS-1I can be tracked NOW for your location showing map with azimuth and elevation plus other details from your city location.







IsCatalogInMostPopularTable: catalog: 43286, numindb: 4667
Update: records affected: 1



GetName: 43286 IRNSS-1I

Hit Count: updated at: Fri, 19 Apr 2024 12:37:26 GMT